Starlink 31691

operational
NORAD ID: 59856 Int'l Des: 2024-097 Owner: SPXS Country: US Constellation: starlink
LEOCIRCULAR

Starlink 31691について

説明を読み込み中...

リアルタイム位置

3D地球を読み込み中...

次回通過

高度履歴

Altitude vs Time

uPlot chart will show altitude changes over time

軌道要素

1 59856U 24097X 25351.12046465 -.00001220 00000-0 -34826-4 0 9993
2 59856 43.0015 20.2554 0001117 273.1145 86.9579 15.27584309 89295
Epoch: Dec 17, 2025 • Age: 16 hours

現在のステータス

高度 486.9 km
速度 7.63 km/s
衛星直下点 43.05°N, 100.03°E
打ち上げ日 May 23, 2024
運用期間 1.5 years
タイプ internet

技術仕様

分類 Payload
質量 730.00 kg
乾燥質量 700.00 kg
総質量 730.00 kg
長さ 0.30 m
直径 4.10 m
スパン 29.00 m
形状 Box + pan
製造者 SPXS
バスタイプ Starlink V2M
フェーズステータス In Orbit
所有者/国 SPXS/US

大規模コンステレーション

Loading constellations...